DLH7CH EDDM-EDDF

Flight info

Callsign DLH7CH
Flight time 0h 37m
Altitude 24000
Route GIVMI6S GIVMI Y101 ERNAS T161 DEBHI DEBHI1B
Aircraft A320/M-SDE3FGHIRWY/LB1

Departure

Time 2026-05-07 16:46
Airport Munich Airport (EDDM)

Arrival

Time 2026-05-07 17:23
Airport Frankfurt Main Airport (EDDF)
Time Latitude Longitude Altitude Speed Heading
2026-05-07 16:06 48.35581 11.79725 1467 ft 0 kts 83°
2026-05-07 16:24 48.35580 11.79712 1457 ft 4 kts 82°
2026-05-07 16:24 48.35576 11.79672 1458 ft 4 kts 78°
2026-05-07 16:25 48.35569 11.79633 1457 ft 4 kts 71°
2026-05-07 16:25 48.35558 11.79596 1457 ft 4 kts 52°
2026-05-07 16:25 48.35541 11.79576 1461 ft 2 kts 356°
2026-05-07 16:25 48.35538 11.79576 1462 ft 0 kts 353°
2026-05-07 16:35 48.35556 11.79573 1460 ft 8 kts 353°
2026-05-07 16:36 48.35654 11.79557 1464 ft 17 kts 354°
2026-05-07 16:36 48.35779 11.79536 1467 ft 19 kts 353°
2026-05-07 16:36 48.35909 11.79512 1461 ft 19 kts 353°
2026-05-07 16:36 48.36026 11.79493 1462 ft 0 kts 353°
2026-05-07 16:38 48.36048 11.79488 1464 ft 16 kts 352°
2026-05-07 16:38 48.36158 11.79470 1468 ft 10 kts 359°
2026-05-07 16:38 48.36219 11.79554 1468 ft 17 kts 80°
2026-05-07 16:39 48.36235 11.79757 1463 ft 21 kts 83°
2026-05-07 16:39 48.36254 11.79980 1464 ft 22 kts 83°
2026-05-07 16:39 48.36272 11.80214 1468 ft 23 kts 83°
2026-05-07 16:39 48.36289 11.80461 1468 ft 24 kts 82°
2026-05-07 16:40 48.36310 11.80715 1460 ft 25 kts 84°
2026-05-07 16:40 48.36329 11.80944 1467 ft 20 kts 83°
2026-05-07 16:40 48.36345 11.81163 1467 ft 22 kts 83°
2026-05-07 16:40 48.36364 11.81395 1465 ft 23 kts 84°
2026-05-07 16:41 48.36381 11.81641 1459 ft 24 kts 83°
2026-05-07 16:41 48.36398 11.81839 1466 ft 17 kts 82°
2026-05-07 16:41 48.36410 11.81957 1457 ft 8 kts 64°
2026-05-07 16:41 48.36459 11.82001 1466 ft 9 kts
2026-05-07 16:42 48.36529 11.81995 1460 ft 11 kts 353°
2026-05-07 16:42 48.36545 11.81992 1461 ft 0 kts 353°
2026-05-07 16:44 48.36548 11.81991 1462 ft 3 kts 352°
2026-05-07 16:45 48.36613 11.81977 1466 ft 14 kts 346°
2026-05-07 16:45 48.36666 11.81843 1466 ft 18 kts 270°
2026-05-07 16:45 48.36643 11.81528 1463 ft 61 kts 264°
2026-05-07 16:45 48.36567 11.80520 1458 ft 130 kts 264°
2026-05-07 16:46 48.36455 11.78889 1538 ft 176 kts 266°
2026-05-07 16:46 48.36316 11.77039 2168 ft 179 kts 266°
2026-05-07 16:46 48.36158 11.75167 2918 ft 182 kts 265°
2026-05-07 16:46 48.36039 11.73196 3249 ft 200 kts 268°
2026-05-07 16:47 48.35899 11.71007 3599 ft 219 kts 265°
2026-05-07 16:47 48.35785 11.68691 4299 ft 223 kts 277°
2026-05-07 16:47 48.36290 11.66454 4891 ft 237 kts 298°
2026-05-07 16:47 48.37157 11.64212 5329 ft 255 kts 301°
2026-05-07 16:48 48.38101 11.61920 6090 ft 260 kts 301°
2026-05-07 16:48 48.39068 11.59613 6886 ft 262 kts 301°
2026-05-07 16:48 48.40044 11.57270 7652 ft 265 kts 300°
2026-05-07 16:48 48.41017 11.54905 8423 ft 268 kts 300°
2026-05-07 16:49 48.41987 11.52532 9207 ft 271 kts 299°
2026-05-07 16:49 48.42977 11.50102 9997 ft 274 kts 299°
2026-05-07 16:49 48.43977 11.47644 10706 ft 277 kts 299°
2026-05-07 16:49 48.45124 11.45283 11400 ft 283 kts 311°
2026-05-07 16:50 48.46697 11.43452 12067 ft 292 kts 327°
2026-05-07 16:50 48.48679 11.42304 12240 ft 320 kts 345°
2026-05-07 16:50 48.50955 11.41686 12388 ft 342 kts 347°
2026-05-07 16:50 48.53308 11.41065 12844 ft 351 kts 347°
2026-05-07 16:51 48.55734 11.40421 13479 ft 355 kts 346°
2026-05-07 16:51 48.58178 11.39764 14082 ft 358 kts 346°
2026-05-07 16:51 48.60636 11.39094 14676 ft 361 kts 346°
2026-05-07 16:51 48.63117 11.38409 15287 ft 363 kts 346°
2026-05-07 16:52 48.65616 11.37716 15881 ft 366 kts 346°
2026-05-07 16:52 48.68122 11.36986 16467 ft 367 kts 343°
2026-05-07 16:52 48.70533 11.35736 17033 ft 366 kts 332°
2026-05-07 16:52 48.72745 11.33836 17610 ft 365 kts 323°
2026-05-07 16:53 48.74862 11.31679 18226 ft 368 kts 323°
2026-05-07 16:53 48.76994 11.29511 18758 ft 371 kts 323°
2026-05-07 16:53 48.79143 11.27324 19289 ft 373 kts 323°
2026-05-07 16:53 48.81274 11.25158 19787 ft 375 kts 323°
2026-05-07 16:54 48.83455 11.22946 20280 ft 377 kts 323°
2026-05-07 16:54 48.85516 11.20488 20775 ft 377 kts 315°
2026-05-07 16:54 48.87452 11.17792 21270 ft 379 kts 315°
2026-05-07 16:54 48.89401 11.15076 21747 ft 381 kts 315°
2026-05-07 16:55 48.91365 11.12334 22227 ft 383 kts 315°
2026-05-07 16:55 48.93337 11.09581 22711 ft 386 kts 315°
2026-05-07 16:55 48.95320 11.06817 23185 ft 388 kts 316°
2026-05-07 16:55 48.97320 11.04028 23634 ft 390 kts 315°
2026-05-07 16:56 48.99328 11.01219 23966 ft 393 kts 315°
2026-05-07 16:56 49.01336 10.98406 24041 ft 392 kts 316°
2026-05-07 16:56 49.05338 10.92785 24078 ft 391 kts 316°
2026-05-07 16:57 49.07332 10.89976 24086 ft 390 kts 316°
2026-05-07 16:57 49.09301 10.87200 24078 ft 390 kts 316°
2026-05-07 16:57 49.11296 10.84384 24080 ft 390 kts 316°
2026-05-07 16:57 49.13286 10.81569 24095 ft 390 kts 316°
2026-05-07 16:58 49.15279 10.78747 24095 ft 390 kts 315°
2026-05-07 16:58 49.17267 10.75924 24101 ft 390 kts 315°
2026-05-07 16:58 49.19261 10.73090 24094 ft 390 kts 315°
2026-05-07 16:58 49.21220 10.70221 24092 ft 390 kts 314°
2026-05-07 16:59 49.23125 10.67275 24056 ft 389 kts 313°
2026-05-07 16:59 49.25001 10.64283 24054 ft 389 kts 312°
2026-05-07 16:59 49.26870 10.61270 24054 ft 391 kts 313°
2026-05-07 16:59 49.28762 10.58226 24069 ft 395 kts 313°
2026-05-07 17:00 49.30667 10.55176 24058 ft 397 kts 313°
2026-05-07 17:00 49.32584 10.52121 24062 ft 397 kts 313°
2026-05-07 17:00 49.34499 10.49079 24067 ft 396 kts 313°
2026-05-07 17:00 49.36280 10.46094 24021 ft 371 kts 307°
2026-05-07 17:01 49.37749 10.42983 23886 ft 350 kts 304°
2026-05-07 17:01 49.39124 10.39986 23452 ft 339 kts 304°
2026-05-07 17:01 49.40467 10.37049 22807 ft 334 kts 304°
2026-05-07 17:01 49.41788 10.34149 22138 ft 329 kts 304°
2026-05-07 17:02 49.43094 10.31276 21467 ft 326 kts 303°
2026-05-07 17:02 49.44381 10.28443 20842 ft 322 kts 303°
2026-05-07 17:02 49.45652 10.25643 20205 ft 318 kts 303°
2026-05-07 17:02 49.46916 10.22864 19571 ft 315 kts 303°
2026-05-07 17:03 49.48165 10.20112 18954 ft 313 kts 303°
2026-05-07 17:03 49.49402 10.17381 18346 ft 310 kts 303°
2026-05-07 17:03 49.50627 10.14671 17662 ft 307 kts 303°
2026-05-07 17:03 49.51844 10.11980 16995 ft 305 kts 303°
2026-05-07 17:04 49.53050 10.09309 16349 ft 302 kts 304°
2026-05-07 17:04 49.54234 10.06685 15708 ft 300 kts 304°
2026-05-07 17:04 49.55424 10.04047 15095 ft 298 kts 304°
2026-05-07 17:04 49.56220 10.02285 14689 ft 296 kts 304°
2026-05-07 17:05 49.57776 9.98836 13924 ft 293 kts 304°
2026-05-07 17:05 49.58936 9.96257 13287 ft 291 kts 304°
2026-05-07 17:05 49.60084 9.93710 12665 ft 288 kts 304°
2026-05-07 17:05 49.61226 9.91175 12075 ft 286 kts 304°
2026-05-07 17:06 49.62341 9.88697 11481 ft 284 kts 304°
2026-05-07 17:06 49.63454 9.86207 11116 ft 279 kts 304°
2026-05-07 17:06 49.64564 9.83717 11040 ft 282 kts 304°
2026-05-07 17:06 49.65679 9.81218 11053 ft 283 kts 304°
2026-05-07 17:07 49.66799 9.78709 11057 ft 284 kts 304°
2026-05-07 17:07 49.67919 9.76199 11061 ft 284 kts 304°
2026-05-07 17:07 49.69039 9.73683 11059 ft 284 kts 304°
2026-05-07 17:07 49.70161 9.71165 11061 ft 284 kts 304°
2026-05-07 17:08 49.71278 9.68652 11060 ft 284 kts 304°
2026-05-07 17:08 49.72409 9.66112 11059 ft 288 kts 306°
2026-05-07 17:08 49.73709 9.63794 11059 ft 285 kts 313°
2026-05-07 17:08 49.75096 9.61608 11055 ft 285 kts 314°
2026-05-07 17:09 49.76492 9.59434 11059 ft 284 kts 314°
2026-05-07 17:09 49.77887 9.57265 11061 ft 284 kts 314°
2026-05-07 17:09 49.79264 9.55125 11059 ft 285 kts 314°
2026-05-07 17:09 49.80663 9.52947 11061 ft 285 kts 314°
2026-05-07 17:10 49.82058 9.50756 11063 ft 285 kts 314°
2026-05-07 17:10 49.83454 9.48560 11061 ft 285 kts 314°
2026-05-07 17:10 49.84846 9.46370 11031 ft 284 kts 314°
2026-05-07 17:10 49.86229 9.44192 10653 ft 282 kts 314°
2026-05-07 17:11 49.87605 9.42024 10253 ft 281 kts 314°
2026-05-07 17:11 49.88973 9.39865 9846 ft 280 kts 314°
2026-05-07 17:11 49.90316 9.37745 9442 ft 278 kts 314°
2026-05-07 17:11 49.91665 9.35617 9039 ft 276 kts 314°
2026-05-07 17:12 49.93007 9.33502 8635 ft 274 kts 314°
2026-05-07 17:12 49.94340 9.31405 8243 ft 272 kts 314°
2026-05-07 17:12 49.95664 9.29321 7847 ft 270 kts 314°
2026-05-07 17:12 49.96980 9.27252 7476 ft 268 kts 314°
2026-05-07 17:13 49.98290 9.25194 7123 ft 266 kts 314°
2026-05-07 17:13 49.99571 9.23181 6973 ft 257 kts 314°
2026-05-07 17:13 50.00393 9.21891 6887 ft 250 kts 314°
2026-05-07 17:13 50.01593 9.20006 6770 ft 239 kts 314°
2026-05-07 17:14 50.02750 9.18192 6417 ft 235 kts 314°
2026-05-07 17:14 50.03900 9.16387 5984 ft 234 kts 314°
2026-05-07 17:14 50.05041 9.14590 5573 ft 233 kts 314°
2026-05-07 17:14 50.06175 9.12796 5150 ft 231 kts 314°
2026-05-07 17:15 50.07290 9.11015 5000 ft 229 kts 314°
2026-05-07 17:15 50.08405 9.09222 5009 ft 231 kts 314°
2026-05-07 17:15 50.09527 9.07422 5010 ft 232 kts 314°
2026-05-07 17:15 50.10635 9.05642 5010 ft 232 kts 314°
2026-05-07 17:16 50.11761 9.03834 5009 ft 232 kts 314°
2026-05-07 17:16 50.12883 9.02029 5011 ft 232 kts 314°
2026-05-07 17:16 50.14000 9.00213 5008 ft 232 kts 311°
2026-05-07 17:16 50.14749 8.98024 5010 ft 226 kts 288°
2026-05-07 17:17 50.15046 8.95750 5006 ft 203 kts 269°
2026-05-07 17:17 50.14500 8.93849 5011 ft 194 kts 231°
2026-05-07 17:17 50.13717 8.92178 5002 ft 189 kts 251°
2026-05-07 17:17 50.13300 8.90238 5015 ft 188 kts 253°
2026-05-07 17:18 50.12863 8.88345 5008 ft 188 kts 252°
2026-05-07 17:18 50.12413 8.86425 5001 ft 189 kts 252°
2026-05-07 17:18 50.11961 8.84503 4835 ft 188 kts 252°
2026-05-07 17:18 50.11511 8.82590 4587 ft 187 kts 252°
2026-05-07 17:19 50.11062 8.80687 4325 ft 187 kts 252°
2026-05-07 17:19 50.10612 8.78780 4052 ft 187 kts 252°
2026-05-07 17:19 50.10162 8.76873 3780 ft 188 kts 252°
2026-05-07 17:19 50.09711 8.74962 3513 ft 188 kts 252°
2026-05-07 17:20 50.09259 8.73054 3240 ft 188 kts 252°
2026-05-07 17:20 50.08808 8.71150 2964 ft 187 kts 252°
2026-05-07 17:20 50.08357 8.69247 2691 ft 187 kts 251°
2026-05-07 17:20 50.07907 8.67347 2427 ft 187 kts 252°
2026-05-07 17:21 50.07454 8.65440 2147 ft 188 kts 252°
2026-05-07 17:21 50.07005 8.63547 1894 ft 181 kts 251°
2026-05-07 17:21 50.06589 8.61804 1622 ft 164 kts 251°
2026-05-07 17:21 50.06205 8.60191 1387 ft 154 kts 251°
2026-05-07 17:22 50.05843 8.58669 1160 ft 147 kts 250°
2026-05-07 17:22 50.05493 8.57197 953 ft 143 kts 249°
2026-05-07 17:22 50.05150 8.55755 756 ft 141 kts 248°
2026-05-07 17:22 50.04812 8.54329 557 ft 141 kts 246°
2026-05-07 17:23 50.04468 8.52901 376 ft 138 kts 247°
2026-05-07 17:23 50.04184 8.51712 365 ft 96 kts 250°
2026-05-07 17:23 50.04011 8.50987 349 ft 48 kts 249°
2026-05-07 17:23 50.03900 8.50555 334 ft 31 kts 243°
2026-05-07 17:24 50.03790 8.50319 334 ft 12 kts 221°
2026-05-07 17:24 50.03781 8.50306 332 ft 5 kts 221°
2026-05-07 17:24 50.03738 8.50250 334 ft 11 kts 219°
2026-05-07 17:24 50.03651 8.50192 328 ft 16 kts 163°
2026-05-07 17:25 50.03631 8.50258 329 ft 8 kts 89°
2026-05-07 17:25 50.03656 8.50396 334 ft 17 kts 70°
2026-05-07 17:25 50.03694 8.50562 335 ft 16 kts 69°
2026-05-07 17:25 50.03735 8.50730 350 ft 18 kts 69°
2026-05-07 17:26 50.03792 8.50968 345 ft 28 kts 70°
2026-05-07 17:26 50.03859 8.51254 352 ft 28 kts 69°
2026-05-07 17:26 50.03927 8.51549 357 ft 29 kts 70°
2026-05-07 17:26 50.04000 8.51847 356 ft 29 kts 69°
2026-05-07 17:27 50.04074 8.52147 358 ft 30 kts 69°
2026-05-07 17:27 50.04148 8.52462 357 ft 32 kts 70°
2026-05-07 17:27 50.04225 8.52776 364 ft 27 kts 68°
2026-05-07 17:27 50.04287 8.53043 372 ft 26 kts 69°
2026-05-07 17:28 50.04350 8.53298 373 ft 24 kts 68°
2026-05-07 17:28 50.04399 8.53540 377 ft 24 kts 83°
2026-05-07 17:28 50.04416 8.53811 374 ft 26 kts 85°
2026-05-07 17:28 50.04429 8.54025 378 ft 17 kts 84°
2026-05-07 17:29 50.04444 8.54230 369 ft 24 kts 83°
2026-05-07 17:29 50.04446 8.54522 348 ft 30 kts 102°
2026-05-07 17:29 50.04343 8.54743 357 ft 16 kts 146°
2026-05-07 17:29 50.04284 8.54792 360 ft 0 kts 162°
2026-05-07 17:30 50.04254 8.54807 361 ft 10 kts 162°
2026-05-07 17:30 50.04176 8.54850 360 ft 13 kts 159°
2026-05-07 17:30 50.04087 8.54902 360 ft 14 kts 159°
2026-05-07 17:30 50.04021 8.54991 364 ft 13 kts 97°
2026-05-07 17:31 50.04049 8.55137 362 ft 15 kts 69°
2026-05-07 17:31 50.04091 8.55304 361 ft 18 kts 69°
2026-05-07 17:31 50.04138 8.55512 356 ft 22 kts 69°
2026-05-07 17:31 50.04195 8.55749 353 ft 25 kts 70°
2026-05-07 17:32 50.04254 8.55996 355 ft 16 kts 68°
2026-05-07 17:32 50.04322 8.56064 356 ft 11 kts 348°
2026-05-07 17:32 50.04397 8.56034 359 ft 11 kts 358°
2026-05-07 17:32 50.04448 8.56096 359 ft 9 kts 69°
2026-05-07 17:33 50.04456 8.56132 356 ft 2 kts 71°
2026-05-07 17:33 50.04469 8.56202 358 ft 3 kts 76°
2026-05-07 17:33 50.04461 8.56250 358 ft 1 kts 153°
2026-05-07 17:33 50.04436 8.56268 356 ft 4 kts 157°
2026-05-07 17:34 50.04427 8.56273 359 ft 0 kts 163°